loading
|

THOR ABLESTAR DEB, 469

Orbit data source: Space-Track

THOR ABLESTAR DEB, 469 is space debris in LEO originally from a launch on Thu, 29 Jun 1961 UTC launched from the Air Force Eastern Test Range (AFETR). Debris objects in space refer to the collection of defunct objects orbiting the Earth. Examples of debris include non-operational satellites, rocket bodies, and fragments generated from explosions, collisions, or faulty payload assembly.

Loading next visibility...
Loading greatness...
THOR ABLESTAR DEB details
Identifier
469, 1961-015FF
Orbit
LEO
Last TLE update6 hours ago
Origin
Flag of USUSAF SSD (US)
ManufacturerUnknown
Mission statusUnknown
MissionUnknown
Bus & MotorUnknown
MassUnknown
Launch date (UTC)
1961-06-29 (63 years ago)
Launch vehicleUnknown
Launch site
Air Force Eastern Test Range (AFETR)
Object type
Payload
Rocket body
Debris
Radar Cross SectionSmall (<0.1 m²)

Expand to show TLE details & history

TLE from 6 hours ago
0 THOR ABLESTAR DEB
1   469U 61015FF  24259.06357481  .00004693  00000-0  17254-2 0  9991
2   469  66.8359  32.2375 0064643 312.3186  47.2447 14.32310200261662
Epoch: 2024-09-15T01:31Z
Definitive object data (Epoch: 2024-09-15T01:31:32.863Z)
Latitude-0.00005°
Longitude14.83824°
Altitude754.867 km
Speed7.494 km/s
True Right ascension02h 08m 56s
True Declination0° 00' 00"
Sunlit
Object was in full shadow at TLE epoch
Predictive object data (real-time)
Latitude-61.79725°
Longitude-113.31268°
Altitude782.816 km
Speed7.474 km/s
Apparent Right ascension14h 25m 52s
Apparent Declination-57° 54' 31"
Sunlit
Object is in daylight
Predictive observer data (real-time)
Local Sidereal Time00:22:48
Azimuth217.289° SW
Elevation-63.349°
Doppler factor1
Orbital elements
Apogee828.664 km
Perigee736.089 km
Semi-major axis7,160.513 km
Eccentricity0.0064643
Inclination66.8359°
RAAN32.2375°
Arg. of periapsis312.3186°
True anomaly47.7916°
Mean anomaly47.2447°
Eccentric anomaly47.51785°
Mean motion3.58201 °/min
BSTAR0.0017254
Period100.5 mins
No data available

THOR ABLESTAR DEB Visibility forecast

Observer location: 39.9160978°, -105.1181434

THOR ABLESTAR DEB is not visible in the next 10 days
Span
Click to sort rows by Start time (UTC) header in descending order
Start Az.
Max El. time (UTC)
Max El. Az.
Max El.
End time (UTC)
End Az.